Wind_Speed
62 62 62 63 63 63 63 62 61 60 60 58 57 56 55 55 54 53 52 52 51 51 50 50 50 51 51 51 51 52 52 52 53 54 54 55 57 58 58 59 59 60 60 60 60 60 61 62 62 63 64 65 65 66 66 67 67 67 67 67 67 66 65 64 64 63 63 63 63 63 63 64 64 65 65 66 66 67 67 68 68 68 68 68 68 68
62 62 63 63 63 63 63 62 61 60 59 58 57 56 55 55 54 54 53 52 51 51 51 51 52 52 52 52 52 52 53 53 54 55 56 57 58 59 59 60 60 60 59 59 59 59 59 60 60 61 62 62 63 64 65 65 66 67 67 67 67 67 66 66 65 64 63 63 63 62 62 63 63 64 64 65 65 66 66 67 67 68 68 68 69 69
62 63 63 63 63 63 63 62 60 59 58 58 57 56 55 55 54 54 53 52 52 52 52 52 53 53 53 53 53 53 54 54 55 56 57 58 59 59 60 59 59 59 58 57 57 56 57 57 58 59 59 60 60 60 61 62 64 65 65 66 67 67 66 66 66 65 64 64 63 63 62 62 62 63 63 64 64 65 65 66 66 67 67 68 68 68
62 63 63 63 63 63 62 61 60 59 58 57 57 56 55 55 54 54 53 53 52 53 53 53 53 54 54 54 54 54 55 55 56 57 58 59 59 59 59 58 57 57 56 55 54 54 54 54 55 56 56 56 56 56 57 58 60 61 62 64 65 65 66 66 66 65 65 64 64 63 63 62 62 62 62 63 63 64 64 64 65 66 66 66 67 67
62 63 63 63 63 62 61 60 59 58 57 57 56 56 55 54 54 54 53 53 53 53 54 54 54 54 55 55 55 55 56 57 58 58 59 59 59 59 58 57 56 55 54 53 52 51 51 51 51 51 52 52 52 52 53 54 55 57 59 60 62 63 63 64 64 65 65 64 64 64 63 63 63 62 62 63 63 63 63 64 64 64 65 65 66 66
63 62 63 63 62 61 60 59 58 57 57 57 56 55 54 54 54 54 53 53 53 54 54 55 55 55 55 56 56 57 57 58 59 59 60 60 60 59 58 57 55 53 52 50 49 48 48 47 47 47 47 47 47 47 48 49 51 52 54 56 58 59 61 62 63 63 64 64 64 64 63 63 63 63 63 63 63 63 63 63 64 64 64 64 65 65
63 62 62 62 62 61 60 58 57 57 56 56 56 55 54 54 53 53 53 54 54 54 55 55 56 56 56 57 58 59 59 60 60 61 61 61 61 60 59 57 56 53 51 49 47 46 45 44 44 44 43 43 43 44 44 45 47 48 50 52 54 56 58 59 60 61 62 63 63 63 63 63 63 63 63 63 63 64 64 64 64 64 64 64 64 65
63 62 61 61 60 60 59 57 56 56 56 56 55 55 54 53 53 53 53 53 54 55 56 56 57 57 58 59 60 61 61 62 63 63 63 63 63 62 61 60 57 55 53 50 47 45 43 41 41 41 41 40 41 41 41 42 44 45 46 48 50 52 54 56 57 59 60 61 62 62 62 63 63 63 64 64 64 64 64 64 64 64 64 65 65 65
61 61 61 60 59 58 58 57 55 54 54 54 54 54 54 53 53 53 53 53 54 55 57 58 58 59 59 60 61 62 63 64 64 65 65 65 65 64 63 62 60 58 56 53 50 46 43 40 39 38 38 38 38 39 39 40 41 42 43 45 46 48 50 52 54 55 57 58 59 60 61 61 62 63 63 64 64 65 65 65 65 65 65 65 65 65
61 60 60 59 58 57 57 56 55 54 53 53 53 53 53 53 54 54 54 54 54 55 57 58 59 60 60 61 61 63 64 65 65 65 66 66 66 65 64 63 62 60 58 56 53 50 46 42 39 37 36 36 36 36 37 38 38 39 40 41 43 44 46 48 50 52 53 55 56 57 58 60 61 62 63 63 64 65 65 66 66 66 66 66 66 66
60 59 59 58 57 56 56 55 54 53 52 52 52 52 52 53 54 55 56 56 56 56 57 58 59 60 61 62 62 63 64 65 66 66 66 66 66 65 65 64 63 61 60 58 56 53 50 46 42 39 36 35 34 34 35 35 35 36 37 38 40 41 43 45 47 49 50 52 53 55 56 58 59 60 62 63 64 64 65 66 66 66 67 67 67 67
59 58 58 57 56 55 55 54 53 52 51 51 51 52 52 52 53 54 55 57 57 57 58 58 59 60 61 62 63 64 65 65 66 66 66 66 66 66 65 64 63 61 60 58 56 54 52 49 46 42 39 37 35 34 34 33 33 34 35 36 37 39 40 42 44 46 48 50 51 53 54 56 57 59 60 62 63 64 65 65 66 66 66 66 67 67
58 57 57 56 55 55 54 53 53 52 51 51 51 52 52 52 52 53 55 56 57 58 58 59 60 60 60 62 63 64 65 66 66 67 67 66 66 66 65 64 63 62 60 59 57 54 52 50 48 46 43 41 39 36 35 34 33 33 34 34 35 37 38 40 42 44 46 48 50 51 53 54 56 57 59 60 62 63 64 64 65 65 65 65 65 66
57 56 56 55 55 54 53 53 52 51 51 50 51 51 52 52 52 53 54 56 57 57 58 59 60 60 60 61 62 64 65 66 66 67 67 66 66 65 65 64 63 61 60 59 57 55 53 51 50 48 46 44 42 40 38 36 35 34 34 34 34 35 36 38 39 41 43 46 48 49 51 52 54 55 57 58 60 61 62 63 63 63 64 64 63 64
56 55 55 55 54 53 52 52 51 51 51 50 50 51 51 52 52 53 54 55 56 57 58 59 60 61 61 61 62 63 64 65 66 67 67 66 65 64 64 63 62 61 59 58 57 55 52 51 50 49 47 46 44 43 41 39 37 36 35 34 34 34 34 35 37 38 40 43 45 47 49 50 52 53 55 56 58 59 60 61 61 61 61 61 61 61
55 54 54 54 54 53 52 51 51 51 51 50 50 50 51 51 52 52 53 55 56 57 59 60 61 62 61 61 61 62 63 64 65 66 67 67 65 64 63 62 62 61 59 58 56 54 52 51 50 49 48 47 45 44 43 41 40 38 37 36 35 35 34 34 35 36 37 39 41 44 46 47 49 51 52 54 56 57 58 58 58 58 58 58 58 58
54 53 54 53 53 52 51 50 50 50 50 50 50 49 50 50 51 52 53 55 56 57 59 60 62 63 63 62 61 60 61 63 64 66 66 66 65 63 62 61 61 61 59 57 55 54 52 51 50 48 47 46 45 44 42 41 40 39 38 37 36 35 34 34 34 34 34 35 37 39 41 43 45 47 49 51 53 54 55 56 56 56 56 56 56 56
53 53 53 53 52 52 51 50 50 50 49 49 49 49 49 50 51 52 53 54 56 57 59 60 61 63 64 64 62 60 60 62 63 65 66 66 65 63 61 61 61 60 59 57 54 53 51 50 49 48 47 45 44 43 42 41 40 39 38 37 36 35 34 34 33 33 32 32 33 34 35 37 40 42 45 47 49 51 52 53 53 54 54 54 54 55
52 52 52 52 52 51 50 49 48 48 48 47 47 48 49 49 50 51 53 54 56 57 59 61 61 62 63 64 63 61 60 61 62 64 66 66 65 63 61 60 60 60 59 57 54 52 51 50 48 47 46 45 44 43 42 41 40 39 39 38 37 36 35 35 34 33 33 32 32 32 32 33 35 37 40 42 45 47 49 50 51 52 52 53 53 54
51 51 50 50 50 50 49 48 47 46 45 46 46 47 48 49 50 52 53 54 56 57 59 60 61 62 62 63 62 61 60 60 62 64 65 66 66 63 61 59 59 59 59 57 54 52 51 50 48 47 46 45 44 44 43 42 41 41 40 40 39 38 38 37 36 36 35 35 34 34 34 34 34 35 36 39 41 44 46 48 49 50 51 52 53 53
51 50 49 48 48 48 48 46 45 44 43 44 45 47 48 50 51 52 54 55 56 57 58 60 61 61 62 62 62 61 60 60 61 63 65 66 66 63 60 59 58 59 58 57 54 53 51 50 48 47 45 45 44 44 43 43 42 42 42 42 42 41 41 40 40 39 39 38 38 38 37 37 37 37 37 38 39 41 43 46 47 49 50 51 52 53
49 49 47 46 46 46 46 45 44 43 42 43 45 46 48 50 52 53 54 55 56 58 59 60 60 61 61 61 61 60 59 59 60 62 64 65 66 63 60 58 57 58 57 56 54 53 51 50 48 47 45 44 44 43 43 43 43 43 43 44 44 44 43 43 42 42 41 41 41 40 40 40 40 39 39 39 40 40 42 44 46 48 49 50 51 52
48 47 46 44 44 44 44 44 43 42 42 43 44 46 48 49 52 53 55 55 57 58 59 60 60 60 60 61 61 60 59 58 59 60 62 64 64 63 60 57 57 56 56 55 53 52 51 50 48 47 45 44 43 43 43 43 43 43 44 44 44 44 44 43 43 42 42 42 42 42 42 41 41 41 41 41 41 41 42 43 44 46 48 49 50 51
46 45 44 43 43 43 43 43 43 43 43 43 44 46 47 49 51 53 54 55 56 57 59 60 60 60 60 60 60 60 59 58 58 59 60 62 63 62 59 57 56 56 55 53 52 52 51 50 48 47 45 44 43 42 42 42 42 43 43 44 44 43 43 42 42 42 42 42 42 42 42 41 41 41 41 42 42 42 43 43 44 45 46 48 49 50
45 44 43 43 43 43 43 43 43 43 43 43 44 45 47 49 51 52 53 54 55 56 58 59 59 60 60 60 60 60 59 58 57 58 59 60 61 60 58 56 55 55 54 52 51 51 51 50 48 47 45 44 43 42 42 42 42 42 43 44 44 43 42 41 40 40 40 41 41 41 41 41 41 41 41 41 41 42 43 43 44 45 46 47 48 49
43 43 42 42 42 42 42 42 42 41 42 42 43 45 47 49 50 52 52 53 54 55 57 58 59 59 60 60 60 60 59 58 57 56 57 58 59 59 57 55 54 54 54 52 51 50 50 50 48 47 45 44 43 43 42 42 42 42 43 43 44 43 42 41 39 39 39 39 40 40 40 40 40 40 40 40 40 41 42 42 43 44 45 47 48 49
41 41 41 41 41 41 40 40 40 40 40 41 42 44 46 48 50 51 52 52 53 54 56 57 58 58 59 60 60 59 58 57 56 55 55 56 57 57 56 54 53 53 53 53 51 51 51 50 49 48 46 45 44 44 43 42 42 42 42 43 43 43 43 42 40 38 38 38 38 39 40 40 40 40 39 39 40 40 41 41 42 43 44 45 47 49
40 40 40 40 40 39 39 39 39 39 40 40 41 43 45 47 49 51 52 52 53 54 55 55 56 57 58 59 59 58 57 56 54 53 53 54 55 56 54 53 52 52 53 53 52 51 51 51 50 49 48 46 46 45 44 43 43 43 43 43 43 44 44 43 42 40 39 38 38 39 39 40 40 40 39 39 39 40 40 40 41 42 43 44 46 49
39 39 39 38 38 38 38 38 38 39 39 40 41 42 44 46 48 50 51 51 52 52 53 53 54 56 57 58 58 57 56 54 53 52 52 53 54 54 53 52 51 51 51 53 53 53 52 51 50 50 49 48 47 46 46 45 44 44 44 44 44 44 44 44 43 42 41 40 39 39 40 40 40 40 40 40 40 40 40 40 40 41 42 43 46 48
38 38 37 37 37 37 37 37 38 38 38 39 40 41 43 45 47 49 50 50 50 50 51 52 52 54 55 56 57 56 55 52 51 50 50 51 52 52 51 50 50 49 50 52 54 55 54 52 51 50 50 50 49 48 47 46 46 45 45 45 45 45 45 45 44 44 43 42 41 40 41 41 41 41 41 41 41 41 41 41 41 41 42 43 45 47
38 37 37 36 36 36 36 37 37 37 37 38 39 40 42 44 46 47 48 48 48 48 49 50 51 52 53 54 55 55 54 51 48 47 48 49 50 50 50 49 49 48 48 49 52 54 56 55 52 51 50 51 50 49 48 47 47 46 46 46 46 46 46 46 45 45 44 43 42 42 41 42 42 42 42 42 42 42 42 42 41 41 42 43 44 46
37 36 36 36 35 35 36 36 36 36 37 38 38 40 41 43 44 44 45 45 45 46 47 48 49 50 51 52 53 53 52 49 47 45 46 47 48 49 48 48 48 48 47 47 49 52 55 56 54 52 51 50 50 49 48 48 48 48 48 48 48 48 47 47 48 48 47 46 45 44 43 43 43 43 43 44 44 44 44 43 43 43 43 43 44 46
36 36 36 35 35 35 35 35 35 36 36 37 38 39 40 41 42 42 42 43 43 44 45 47 48 49 50 50 50 50 49 47 45 44 44 45 46 47 47 47 47 47 47 47 48 49 52 54 55 54 52 50 50 49 49 49 49 49 49 50 50 50 49 49 50 50 50 49 49 48 46 45 45 45 45 45 45 45 45 45 45 45 45 45 46 47
36 36 35 35 35 34 34 34 35 35 36 37 38 39 39 40 40 40 41 42 42 43 44 45 46 47 48 48 48 48 47 45 43 42 42 42 44 44 45 45 45 45 46 47 47 48 50 52 53 53 53 51 50 49 49 49 49 49 49 50 50 51 51 51 51 52 52 52 52 51 50 49 49 48 47 47 47 47 48 48 47 47 47 48 48 48
36 36 35 34 34 33 33 33 34 35 36 36 37 38 38 39 39 40 40 41 41 42 43 44 44 45 46 47 47 46 45 42 41 40 40 40 41 42 43 43 43 44 45 46 47 48 49 50 50 51 52 51 50 49 48 48 49 49 49 49 49 50 51 51 51 52 52 52 53 53 52 52 52 51 51 50 50 50 50 50 50 50 50 51 51 51
36 35 34 33 32 32 32 32 33 34 35 36 36 37 37 38 38 39 40 40 41 41 41 42 42 43 43 44 44 44 43 41 40 38 38 38 39 40 41 41 41 41 43 44 45 46 47 48 48 48 49 50 50 50 48 48 48 48 48 48 48 48 48 49 49 50 51 52 52 52 53 53 53 53 53 52 52 52 52 51 51 52 52 53 53 54
36 35 33 32 31 31 32 32 33 34 35 35 35 36 36 37 38 39 39 40 40 40 40 40 40 41 41 41 41 41 41 40 39 38 37 37 37 38 39 39 39 39 40 42 43 44 45 46 47 47 47 48 49 50 49 48 48 47 47 46 45 45 45 45 45 46 47 48 49 50 51 51 52 52 53 52 52 52 52 52 52 52 52 53 54 55
35 33 32 31 31 31 32 32 33 34 34 34 35 35 36 37 37 38 39 39 39 39 39 39 39 39 39 39 39 39 39 39 38 37 37 36 36 37 38 38 38 38 38 39 41 42 43 45 46 47 47 47 47 47 47 47 47 46 45 43 41 40 39 39 39 39 41 42 44 46 47 48 49 50 51 51 52 52 52 52 52 51 52 52 53 53
34 32 31 30 30 31 31 32 33 33 34 34 34 35 36 36 37 37 38 38 38 38 38 38 38 38 37 37 37 37 37 37 36 36 35 35 35 35 36 37 37 37 37 37 39 40 41 43 44 45 45 45 45 45 44 44 44 43 42 40 38 36 34 33 32 33 34 36 38 41 43 44 46 47 48 49 49 50 50 50 49 49 50 50 51 51
33 31 30 29 30 30 31 32 32 33 33 33 34 34 35 36 37 37 37 37 37 37 37 37 37 37 36 36 36 36 36 35 35 35 34 34 34 34 35 35 36 36 36 37 37 38 39 40 41 42 42 42 43 42 41 40 39 39 38 37 36 34 32 30 29 29 30 31 33 35 37 39 41 42 43 44 45 46 46 46 46 46 46 47 48 48
32 30 29 29 29 30 31 32 32 32 33 33 33 34 35 36 36 36 36 36 36 36 36 36 36 36 35 35 35 34 34 34 34 33 33 33 33 33 34 34 35 36 36 36 37 37 37 38 39 39 39 39 40 39 38 37 35 35 35 35 35 34 32 29 28 28 28 28 29 30 32 34 35 37 38 40 41 41 42 42 43 43 43 44 45 46
30 29 28 28 29 30 30 31 31 32 32 32 33 34 35 35 36 36 36 35 35 34 35 35 35 35 34 33 33 33 33 33 33 32 32 32 32 32 33 34 34 35 36 36 36 36 36 36 36 37 37 37 37 37 36 34 33 32 33 33 34 34 32 29 28 28 27 27 27 27 28 29 31 32 34 35 36 37 38 39 40 41 42 42 43 44
29 28 28 28 29 29 30 30 31 31 31 32 32 33 34 35 35 35 35 34 34 34 34 34 35 34 34 33 32 31 31 31 31 31 31 31 31 31 32 32 33 34 35 35 35 35 34 34 34 34 34 35 35 34 34 33 32 32 32 32 33 34 33 31 30 28 27 26 25 25 26 26 28 29 30 32 33 34 35 37 38 39 40 41 42 42
28 27 27 28 29 29 30 30 30 30 31 31 32 32 33 34 34 34 34 33 33 33 33 34 34 34 34 33 32 31 29 29 29 29 29 29 29 30 30 31 32 33 33 34 34 34 33 33 32 32 32 33 33 33 33 33 33 32 31 31 32 32 33 32 31 29 27 26 25 25 25 26 26 27 28 29 29 30 31 32 33 33 34 35 36 38
27 27 27 28 29 29 29 29 29 30 30 30 31 32 32 33 33 33 33 32 32 33 33 33 34 34 33 33 32 30 29 28 27 26 27 27 28 28 29 30 30 31 31 32 32 32 32 32 32 32 32 32 31 32 33 33 33 33 32 31 31 30 30 30 30 30 30 28 26 26 26 26 25 25 25 25 24 24 24 24 25 25 26 27 28 30
27 27 27 28 28 28 28 29 29 29 29 29 30 31 31 31 32 32 32 32 32 32 32 33 33 33 33 32 32 31 29 28 26 26 26 26 26 27 28 28 29 29 29 30 30 30 31 32 32 32 32 32 31 32 32 33 33 33 33 32 31 30 29 29 29 30 30 30 29 28 27 27 26 25 25 23 22 21 20 21 22 22 23 23 24 25
26 27 27 28 28 28 28 28 28 28 28 28 29 29 30 30 30 30 30 30 31 31 32 32 32 32 32 32 32 31 30 29 27 26 26 26 26 26 26 26 26 27 27 27 28 29 30 31 32 33 33 33 33 33 33 33 34 34 34 33 32 31 30 30 29 29 30 30 31 31 30 29 29 28 27 26 25 24 24 24 25 26 26 27 27 28
26 27 27 27 27 27 27 27 27 27 27 27 28 28 29 29 29 29 29 29 30 30 31 31 31 31 31 31 31 30 30 29 28 27 26 26 25 25 24 24 24 24 24 25 25 27 28 30 31 33 33 34 34 34 34 34 34 34 34 34 33 33 32 31 30 30 30 31 32 32 33 33 33 33 32 31 30 29 29 29 30 31 31 32 33 34
26 26 27 27 26 26 26 26 26 26 26 27 27 27 27 28 28 28 28 28 29 29 30 30 31 31 31 30 30 29 29 29 28 27 26 26 25 24 23 23 22 22 22 23 24 25 26 27 29 31 32 33 34 35 35 35 34 34 34 34 33 33 32 32 31 31 31 31 32 33 33 34 34 35 35 35 35 35 34 34 34 35 35 36 37 39
25 26 26 26 26 25 25 25 25 25 26 26 26 26 26 26 27 27 27 28 28 29 29 30 30 30 30 29 29 29 28 28 27 27 26 25 25 24 24 23 23 23 23 24 24 24 24 24 24 26 28 31 33 34 35 35 34 33 33 33 33 33 33 32 32 32 32 32 32 33 33 33 34 34 36 37 37 37 37 37 37 37 37 38 39 40
25 25 25 25 25 24 24 24 24 24 25 25 25 25 25 25 25 26 26 27 27 28 28 29 29 29 29 29 28 28 28 28 27 26 26 26 25 25 25 25 25 26 26 26 26 26 26 24 23 22 23 26 29 32 33 33 33 33 32 32 32 32 32 33 32 32 32 33 33 33 33 33 34 34 35 36 38 39 39 39 39 38 39 39 40 40
Wind_Direction
311 311 312 312 313 313 313 314 314 313 312 312 312 311 311 310 310 309 308 308 307 306 306 305 305 304 304 303 303 302 302 301 301 301 300 300 300 299 299 298 297 295 294 292 291 289 287 286 284 283 282 281 279 278 277 277 276 275 274 274 273 272 271 270 269 268 267 267 266 265 264 264 263 263 262 262 262 261 261 261 261 261 261 261 262 262
310 311 311 312 313 313 314 314 314 313 312 312 312 311 311 310 309 309 308 308 307 307 307 306 306 305 304 304 303 303 302 302 302 302 302 302 301 301 301 300 299 298 296 294 292 290 288 285 284 282 281 280 279 278 277 276 275 274 274 273 273 272 271 271 270 269 268 267 266 265 264 264 263 263 262 262 261 261 261 261 261 261 261 261 261 261
310 311 311 312 313 313 314 313 313 312 312 312 311 311 311 310 309 309 309 308 308 307 307 307 306 305 305 304 304 303 303 303 303 303 303 303 304 304 303 303 302 301 299 297 294 292 289 286 284 282 281 279 278 277 276 275 274 273 273 272 272 272 271 271 270 269 269 268 267 266 265 264 263 263 262 262 261 261 261 261 261 260 260 260 260 260
310 311 312 312 313 313 313 313 312 312 312 311 311 311 310 310 309 309 309 309 308 308 307 307 306 305 305 304 304 304 304 304 304 305 305 306 306 306 306 306 305 303 301 299 297 294 291 288 286 284 282 280 279 277 275 274 273 272 271 271 271 271 270 270 270 269 269 268 267 267 266 265 264 263 263 262 261 261 261 260 260 260 260 260 260 260
310 311 312 312 313 313 313 312 312 312 311 311 311 310 310 310 309 309 309 309 308 308 307 307 306 306 305 305 305 305 305 305 306 307 307 308 308 309 309 308 307 305 304 302 300 297 294 291 288 285 284 282 280 278 276 274 272 271 270 269 269 269 269 269 268 268 268 268 267 267 266 265 264 264 263 262 262 261 261 260 260 260 260 260 260 260
310 311 312 313 313 313 312 312 312 311 311 311 310 310 310 309 309 309 309 309 308 308 307 307 306 306 306 306 306 306 307 307 307 308 309 310 311 311 311 310 309 307 306 304 302 299 295 292 288 286 284 283 281 279 277 275 272 271 269 268 267 267 266 266 266 266 266 266 266 265 265 265 264 264 263 262 262 261 261 260 260 260 260 259 259 259
310 311 312 312 312 312 311 311 311 311 311 311 310 309 309 309 309 310 309 309 308 308 307 307 306 307 307 307 307 308 308 309 309 310 311 312 314 314 314 313 311 310 308 306 304 301 296 291 288 285 284 282 281 279 277 275 272 270 268 267 266 265 264 264 264 264 264 264 264 264 264 263 263 263 263 262 262 262 261 261 260 260 260 260 259 259
311 311 312 312 311 311 311 311 311 312 311 311 310 310 309 309 309 309 309 308 308 308 308 308 307 308 308 309 309 310 310 311 312 313 314 315 316 317 317 316 314 312 311 309 306 303 297 291 287 284 282 281 280 278 276 274 272 270 268 267 265 264 263 263 262 262 262 262 262 262 262 262 262 262 262 262 262 262 261 261 261 260 260 260 260 259
310 311 311 311 311 310 310 310 311 311 311 311 310 310 310 310 309 309 308 308 308 309 309 309 309 309 310 310 311 312 313 313 314 315 317 318 319 319 319 318 317 315 314 312 310 306 300 294 288 284 282 281 280 278 276 274 272 270 268 267 265 264 263 263 262 261 261 261 261 261 261 261 261 261 261 261 261 262 261 261 261 261 261 260 260 260
310 310 311 311 310 310 311 311 311 311 311 311 310 311 311 311 311 310 309 309 309 310 310 310 311 311 311 311 312 313 314 315 316 317 318 320 320 321 320 320 319 318 316 315 312 309 305 300 294 289 286 284 282 280 278 275 273 271 269 267 265 264 264 263 262 261 261 260 260 260 260 260 261 261 261 261 261 261 262 262 262 262 261 261 261 261
310 310 310 310 310 311 311 311 312 312 311 311 310 311 312 312 313 312 311 310 310 310 310 310 311 311 312 313 313 314 315 316 317 318 319 320 321 321 321 320 319 318 317 316 314 311 308 305 301 298 294 291 288 286 283 279 276 273 270 267 265 264 263 262 261 261 260 260 260 260 260 260 260 261 261 261 262 262 262 262 262 262 262 262 262 262
310 310 310 310 310 311 311 311 311 311 311 311 311 312 312 313 313 312 311 310 310 310 310 310 310 311 313 314 315 315 316 317 318 319 320 321 321 321 321 320 319 318 317 315 313 311 309 307 305 303 301 298 295 292 289 284 280 276 272 268 265 263 262 261 260 260 259 259 259 259 259 260 260 261 261 262 262 263 263 263 263 263 263 263 263 262
310 310 310 310 310 311 312 312 311 311 311 312 312 312 312 312 311 311 310 309 310 310 310 310 310 311 312 314 315 317 318 319 320 320 320 321 321 321 321 320 319 318 316 315 312 310 309 307 306 305 304 302 301 298 294 290 285 280 276 272 267 264 261 260 259 258 257 257 257 258 259 259 260 261 262 262 263 264 264 264 264 264 264 264 264 263
309 309 309 310 310 311 312 312 311 311 311 312 312 312 312 311 310 309 309 309 309 310 310 310 311 311 313 314 316 318 319 320 320 320 320 320 321 320 319 318 317 316 315 314 312 310 309 308 307 305 304 304 303 302 299 295 291 287 282 278 273 268 263 260 258 257 256 256 256 256 257 258 260 261 262 263 264 264 265 265 265 265 265 265 265 264
309 309 309 310 310 311 311 311 311 311 311 312 312 311 310 309 308 308 308 309 309 310 310 311 311 312 313 315 317 319 320 321 321 320 319 319 319 319 318 317 316 315 314 313 311 310 309 308 307 306 305 304 304 304 302 300 297 294 290 286 281 276 270 265 261 258 256 255 255 255 256 257 258 260 261 262 263 264 265 266 266 266 266 266 265 265
308 308 309 310 310 311 311 311 311 311 311 311 311 310 308 308 307 308 309 309 310 311 312 312 312 313 313 315 318 320 321 321 320 319 318 318 318 318 317 315 314 313 313 312 311 310 309 308 306 305 304 304 304 304 303 302 301 298 296 292 288 284 279 273 268 263 260 257 256 255 255 256 257 258 259 261 262 263 264 265 265 266 266 266 265 265
308 308 309 310 310 310 311 310 310 310 310 310 309 308 307 307 307 308 309 310 311 312 313 313 314 314 314 316 318 319 321 320 319 318 317 317 317 316 315 314 313 312 312 311 311 310 309 307 305 304 303 302 302 302 302 301 300 299 297 295 292 289 285 280 275 271 267 263 260 258 257 257 256 257 258 259 260 261 263 264 264 265 265 265 264 264
307 308 309 309 309 309 309 309 309 309 309 308 307 306 305 306 308 309 310 311 312 313 313 313 313 314 315 316 318 319 320 320 318 317 316 315 315 315 314 313 312 311 311 310 310 309 308 306 304 302 301 300 300 299 299 298 297 296 295 293 292 290 288 285 282 278 274 270 267 264 261 259 258 257 257 257 258 259 260 262 262 263 263 263 263 263
307 308 308 308 308 308 307 307 307 307 307 307 306 306 306 307 308 309 311 311 312 313 313 313 313 314 315 316 317 319 320 319 318 316 315 314 314 314 314 313 311 310 310 309 309 309 307 305 303 301 300 299 298 297 296 296 295 294 293 291 290 290 289 288 286 284 282 278 275 271 268 265 262 260 258 258 257 258 259 259 260 261 261 262 262 262
306 306 307 306 306 305 305 305 306 306 306 306 306 306 307 308 309 310 310 311 312 312 312 313 313 314 315 315 316 318 319 319 317 316 315 314 313 313 313 312 311 310 309 309 309 309 308 306 304 302 300 298 297 296 296 295 294 293 292 291 291 290 290 290 289 288 286 284 282 280 277 274 270 266 263 260 259 258 258 258 258 259 259 260 260 261
304 305 305 304 303 303 303 304 305 305 306 307 307 307 308 309 310 310 310 311 311 312 312 313 313 314 314 314 315 317 319 318 317 316 315 313 312 312 313 312 311 309 308 308 308 308 308 306 304 303 301 299 298 297 296 295 294 293 292 292 292 292 292 292 292 290 289 288 286 285 283 281 278 275 271 267 263 260 258 257 257 257 257 258 258 259
302 302 303 302 302 302 302 304 305 306 307 308 308 309 310 310 310 310 310 310 311 312 312 312 313 313 313 314 315 317 318 318 317 316 314 312 312 312 313 312 310 309 308 308 308 308 307 306 305 304 302 300 298 297 296 295 294 293 292 292 293 293 293 293 293 291 290 289 287 286 285 284 283 281 278 275 271 267 263 260 258 258 257 257 258 258
300 301 302 302 302 303 304 305 306 307 308 309 309 309 309 309 309 308 309 310 311 312 312 312 312 312 313 314 315 316 317 318 317 316 314 312 311 312 312 312 310 309 308 308 308 308 307 306 305 305 303 301 300 298 296 295 293 292 292 291 292 292 293 292 291 290 289 288 287 286 285 284 284 283 282 280 277 273 270 266 263 261 259 259 258 258
302 303 303 304 305 305 307 308 309 310 310 310 309 308 307 307 306 307 308 309 311 312 312 312 312 313 314 314 315 316 317 318 317 315 314 312 312 312 312 312 311 309 308 308 308 307 307 306 305 305 304 303 301 299 298 296 294 292 291 290 290 290 290 290 289 288 287 285 284 283 283 283 283 282 282 281 279 277 274 271 268 265 263 262 261 260
305 306 306 307 307 308 309 309 310 310 309 308 307 306 305 305 305 306 308 310 311 311 311 312 312 313 314 314 315 316 317 318 317 316 315 313 312 312 312 312 312 310 309 309 308 307 306 306 306 305 305 304 303 302 300 298 296 294 292 291 290 289 289 288 287 285 283 282 280 280 279 280 280 280 280 280 279 277 275 273 271 269 267 265 264 263
306 306 306 307 307 307 308 308 307 306 305 304 303 303 303 304 305 306 308 310 311 312 311 311 312 313 314 315 315 316 317 318 318 317 316 314 313 312 312 313 312 311 310 309 308 308 307 306 306 306 306 306 305 304 302 300 298 296 294 293 292 291 290 288 286 284 281 279 277 276 276 276 277 277 278 278 278 276 275 273 272 270 269 267 266 265
305 304 304 305 305 305 305 304 303 302 301 301 301 302 303 304 306 307 310 311 312 312 311 312 313 314 314 315 315 316 317 318 319 318 317 315 313 312 313 313 313 311 310 310 309 309 308 308 307 308 308 307 306 305 304 302 301 299 298 296 295 294 293 292 290 287 283 280 277 275 274 274 275 276 276 276 276 275 274 273 272 271 269 268 267 266
303 303 303 303 304 303 303 302 301 300 300 300 301 302 304 305 307 309 311 312 312 312 312 312 312 313 314 315 316 316 317 319 320 320 318 316 313 313 313 314 313 312 312 311 310 309 309 308 309 309 309 308 308 307 306 305 304 303 302 301 299 298 297 296 294 292 288 284 280 277 275 274 274 275 275 275 275 274 273 272 271 270 269 268 267 266
303 302 302 303 303 302 302 301 300 300 301 301 302 304 306 307 309 310 311 312 312 311 311 312 312 313 314 315 316 316 318 320 321 321 319 316 314 313 313 313 313 313 312 312 311 310 309 309 310 310 310 310 310 309 309 309 308 307 306 305 303 302 301 299 298 296 293 289 285 281 278 276 275 275 275 274 274 273 272 271 270 269 268 267 266 265
302 302 302 303 303 302 301 301 301 301 301 303 304 306 307 309 310 310 311 311 310 310 310 312 313 314 315 316 316 317 319 321 323 322 319 316 314 313 313 313 313 313 313 312 312 311 311 311 311 312 312 311 311 311 311 311 310 309 308 307 305 304 302 301 299 297 295 292 288 285 281 279 277 276 275 274 273 273 272 271 270 269 268 267 265 265
303 303 304 304 303 302 301 301 301 301 302 304 306 308 309 309 309 309 309 309 309 310 311 313 314 316 317 317 317 318 320 322 323 322 319 316 313 313 313 313 313 313 313 312 311 310 311 312 313 313 312 312 312 312 312 312 311 311 309 308 306 305 303 302 301 299 297 294 291 287 284 281 279 277 276 275 274 273 272 271 270 270 269 267 266 265
304 304 305 304 303 302 301 301 302 303 304 306 308 309 309 309 309 308 308 309 310 311 313 315 316 317 318 318 318 318 320 322 323 322 319 316 313 313 313 313 313 313 314 313 311 309 309 310 312 314 314 314 314 314 314 313 312 311 310 308 307 305 304 304 302 301 299 297 294 290 287 283 280 278 276 275 274 273 272 271 270 269 268 268 267 266
304 305 305 304 303 302 301 302 303 304 306 307 309 309 309 309 309 309 310 311 313 314 316 317 318 318 318 318 318 319 320 322 323 322 319 316 314 313 313 313 313 314 314 313 312 310 309 309 311 313 314 315 315 315 314 314 313 311 310 308 307 306 305 304 303 301 300 299 296 294 291 287 284 280 277 275 274 272 271 271 270 269 268 267 267 266
304 304 304 303 302 301 302 303 304 306 307 308 309 309 309 309 310 311 313 314 316 317 318 319 319 319 319 319 319 319 321 322 323 321 318 316 314 313 314 314 314 315 315 314 313 312 311 311 312 313 314 315 315 315 315 313 312 311 309 308 307 306 304 303 302 301 299 298 297 296 294 292 289 286 283 279 277 275 273 271 270 268 268 267 267 267
304 303 302 302 301 302 303 304 306 307 308 309 309 309 310 311 313 314 316 317 318 319 320 320 320 320 319 319 319 320 321 322 322 320 318 317 315 314 314 315 316 316 315 315 315 314 313 313 314 314 314 315 316 316 316 314 312 310 309 308 306 305 304 302 301 300 299 297 296 295 294 292 291 289 287 285 282 279 277 274 272 270 269 268 267 267
303 302 302 302 302 303 304 305 307 308 308 309 310 311 312 314 316 317 319 319 320 321 321 321 321 320 320 319 319 319 321 321 321 320 319 317 316 315 315 316 317 317 316 316 316 316 315 315 316 316 315 315 316 317 317 315 313 311 309 308 306 305 303 302 301 300 298 297 296 294 293 292 290 289 287 286 284 283 281 278 276 274 272 270 269 268
302 302 302 302 303 304 305 306 307 308 309 310 311 313 315 317 318 319 320 321 321 322 322 322 322 321 320 320 319 320 321 321 322 321 320 319 318 317 316 317 318 319 317 316 316 317 317 317 317 318 317 317 316 317 317 316 314 312 311 309 307 306 304 303 301 300 298 296 295 294 293 291 290 289 288 287 285 284 283 281 280 278 276 274 272 270
302 302 302 303 304 305 306 307 308 309 310 311 313 316 317 319 320 320 321 321 322 323 323 323 323 322 321 320 320 321 321 322 322 322 321 320 319 318 318 318 319 320 319 318 317 317 317 317 317 318 318 318 318 317 317 316 315 314 313 312 310 309 307 305 303 301 298 296 294 293 292 291 291 290 289 289 288 286 285 284 283 281 280 278 276 274
302 302 303 304 305 306 306 307 308 310 311 313 316 318 319 320 321 321 321 322 323 324 325 325 324 323 323 322 322 322 322 322 322 321 321 320 319 319 319 319 320 321 321 320 319 318 317 317 317 317 318 318 318 318 318 318 317 317 317 316 315 314 313 311 308 305 301 298 295 294 293 292 291 291 291 290 290 290 289 288 287 285 284 282 280 278
301 302 303 304 305 306 307 308 309 311 313 315 318 319 320 321 321 321 322 323 325 326 326 326 326 325 324 324 324 323 323 322 322 321 321 321 320 320 320 321 321 322 322 322 321 320 318 318 318 318 318 317 317 318 319 320 321 321 320 320 320 320 320 319 317 312 308 304 300 298 296 294 294 293 293 293 293 293 292 292 291 290 288 286 284 282
301 302 302 304 305 306 307 309 311 312 315 317 319 320 321 321 321 321 323 325 327 328 328 328 327 326 326 326 325 324 323 323 322 322 321 321 322 322 322 322 323 323 323 322 322 321 320 319 318 318 318 318 318 319 321 323 324 325 325 325 325 325 325 325 324 322 317 313 309 306 302 300 298 296 295 295 295 295 295 294 293 293 291 290 288 286
300 301 302 304 305 307 308 310 312 314 316 318 320 321 321 321 321 322 324 327 329 330 330 329 329 328 328 327 327 326 325 323 322 322 322 323 323 324 324 323 323 323 322 322 322 321 321 319 319 319 319 319 319 321 323 326 328 329 329 329 328 327 328 329 329 328 326 322 318 314 310 306 303 300 299 298 298 298 297 296 295 295 294 293 292 290
299 301 302 304 306 308 310 311 313 314 316 319 320 321 321 321 322 323 326 328 330 332 332 331 330 330 329 329 329 328 327 325 323 323 323 323 324 324 324 324 323 322 322 321 321 321 322 321 320 319 320 320 321 323 326 329 331 333 333 333 332 332 333 333 333 333 331 329 326 322 318 313 308 305 303 302 301 301 300 299 298 297 296 295 294 293
299 300 303 305 307 309 310 312 313 315 317 319 321 321 321 321 323 324 327 329 332 333 333 332 331 331 331 331 331 330 329 327 326 325 324 325 325 325 325 324 323 323 322 321 321 321 322 322 322 321 321 322 323 326 329 332 334 336 336 336 336 336 337 337 337 336 335 333 331 329 325 320 315 311 308 306 305 303 302 301 299 298 296 295 293 292
299 301 303 306 308 310 311 312 314 315 318 319 320 321 321 322 323 325 328 330 332 334 334 333 332 332 332 332 332 332 332 331 329 328 327 327 327 327 326 325 324 323 323 322 322 322 323 323 323 323 323 324 326 330 333 335 337 338 338 338 338 338 338 339 340 340 339 338 336 335 332 329 324 320 316 313 311 309 308 307 305 303 301 298 295 292
299 301 304 306 308 310 311 312 314 316 318 319 320 321 321 322 324 326 329 331 333 334 334 334 333 332 332 333 333 334 334 334 334 333 332 331 330 330 328 327 326 325 324 324 324 325 325 326 326 327 327 328 331 334 337 338 339 339 340 340 340 340 340 342 342 342 341 341 340 339 338 336 333 331 329 328 327 326 326 326 325 322 318 313 308 305
299 302 304 307 308 310 311 312 314 316 318 319 320 321 322 323 325 327 330 332 334 335 335 335 334 333 333 333 334 335 336 337 337 337 337 336 335 333 332 330 329 328 328 328 328 329 330 330 330 331 332 334 336 339 341 341 342 341 342 342 342 341 342 343 344 344 343 343 342 342 341 340 339 338 338 338 339 340 341 341 339 335 331 327 324 321
299 302 305 307 309 310 312 313 314 316 317 319 320 321 323 324 326 328 331 333 335 336 336 335 335 334 334 335 335 336 337 338 339 340 340 339 338 337 335 334 333 332 332 333 334 335 336 337 336 336 337 338 340 341 343 344 344 344 344 344 344 343 343 344 345 345 345 345 344 343 342 341 340 340 340 341 343 344 345 344 343 340 336 332 329 327
300 303 306 307 309 311 312 313 315 316 317 319 320 322 324 325 327 329 332 335 336 337 337 336 336 336 336 336 337 337 338 339 340 340 340 341 340 339 339 338 338 338 339 340 342 343 344 345 344 342 341 341 342 342 343 344 345 345 346 346 345 344 344 346 347 347 347 346 346 344 343 342 341 341 341 340 341 343 343 343 342 340 336 332 330 328
301 304 307 309 310 312 313 314 315 316 317 319 321 323 325 326 328 331 334 336 338 338 337 337 336 337 337 337 338 338 339 340 340 341 341 341 342 342 342 342 343 344 346 347 348 349 352 354 354 350 346 344 343 343 343 343 344 346 347 348 347 346 346 347 349 349 348 348 347 345 344 343 342 342 340 339 339 339 341 341 340 337 334 330 328 326
302 305 308 310 311 312 313 314 315 316 318 320 322 324 326 327 330 332 335 337 338 339 338 338 337 337 338 338 339 339 339 340 341 341 342 343 343 344 345 346 347 349 350 351 352 353 355 358 1 0 355 349 346 344 343 343 344 346 348 350 350 349 348 349 350 350 349 348 347 345 344 343 342 341 339 336 335 335 336 336 335 334 331 328 325 322
Height
3008 3007 3005 3003 3001 2999 2998 2997 2996 2993 2990 2990 2989 2988 2986 2984 2983 2981 2980 2978 2977 2975 2973 2972 2971 2969 2968 2967 2966 2964 2963 2961 2959 2958 2956 2955 2953 2952 2950 2948 2947 2945 2943 2941 2939 2937 2935 2933 2931 2929 2928 2926 2925 2923 2923 2922 2921 2920 2919 2919 2919 2918 2918 2918 2918 2918 2918 2918 2918 2918 2918 2918 2918 2918 2918 2918 2918 2918 2919 2919 2920 2920 2920 2921 2921 2922
3005 3003 3002 3000 2998 2995 2993 2993 2992 2989 2986 2985 2984 2983 2981 2979 2978 2976 2975 2973 2972 2970 2968 2966 2965 2964 2963 2962 2961 2959 2958 2956 2954 2953 2952 2950 2948 2947 2945 2943 2941 2939 2937 2935 2933 2931 2929 2927 2925 2923 2922 2920 2919 2918 2916 2915 2915 2914 2913 2913 2912 2912 2912 2912 2912 2912 2912 2912 2912 2911 2912 2912 2912 2912 2912 2912 2912 2913 2913 2913 2913 2914 2914 2915 2915 2916
3001 2999 2998 2997 2994 2992 2990 2988 2987 2985 2983 2981 2979 2978 2977 2974 2973 2971 2970 2968 2967 2965 2963 2961 2960 2959 2958 2957 2956 2955 2953 2952 2950 2948 2947 2945 2943 2942 2939 2937 2935 2933 2930 2928 2926 2924 2922 2920 2918 2917 2915 2914 2913 2912 2910 2909 2908 2908 2907 2907 2906 2906 2906 2905 2905 2905 2905 2905 2905 2905 2905 2905 2906 2906 2906 2906 2906 2907 2907 2907 2908 2908 2908 2909 2909 2910
2998 2995 2993 2992 2990 2988 2987 2985 2983 2981 2979 2977 2975 2973 2972 2970 2968 2966 2965 2963 2962 2960 2958 2957 2955 2954 2953 2952 2951 2950 2948 2947 2945 2944 2942 2940 2938 2936 2934 2932 2929 2926 2924 2922 2919 2917 2916 2914 2912 2911 2909 2908 2907 2906 2905 2904 2903 2902 2902 2901 2900 2900 2900 2899 2899 2899 2899 2899 2899 2899 2899 2899 2900 2900 2900 2900 2900 2901 2901 2901 2901 2902 2902 2903 2903 2903
2995 2992 2989 2988 2986 2984 2983 2981 2979 2977 2975 2973 2971 2969 2968 2965 2963 2962 2960 2959 2957 2955 2953 2952 2951 2949 2948 2947 2946 2945 2944 2942 2940 2939 2937 2935 2933 2931 2929 2926 2924 2921 2918 2916 2913 2912 2910 2908 2906 2904 2903 2902 2901 2900 2899 2898 2898 2897 2896 2895 2895 2894 2894 2893 2893 2893 2893 2893 2893 2893 2893 2893 2893 2893 2894 2894 2894 2895 2895 2895 2895 2896 2896 2897 2897 2898
2991 2989 2986 2984 2982 2980 2979 2977 2976 2973 2971 2968 2967 2965 2964 2961 2959 2958 2956 2954 2952 2951 2949 2948 2946 2945 2943 2942 2941 2940 2938 2937 2935 2934 2932 2930 2928 2926 2923 2921 2918 2916 2913 2911 2909 2907 2905 2903 2901 2899 2898 2897 2895 2894 2893 2893 2892 2891 2891 2890 2889 2888 2888 2888 2887 2887 2887 2887 2887 2887 2887 2887 2887 2888 2888 2888 2888 2888 2889 2889 2890 2890 2890 2891 2891 2892
2986 2985 2984 2981 2978 2976 2975 2973 2972 2970 2967 2964 2962 2961 2960 2958 2956 2954 2952 2950 2948 2946 2944 2943 2942 2940 2939 2937 2935 2934 2932 2931 2929 2928 2926 2923 2921 2919 2917 2914 2912 2910 2908 2906 2904 2902 2900 2898 2897 2895 2894 2892 2891 2890 2888 2888 2887 2886 2885 2885 2884 2883 2883 2882 2881 2881 2881 2880 2880 2880 2880 2881 2881 2881 2881 2882 2882 2882 2883 2883 2884 2884 2884 2885 2885 2886
2982 2981 2980 2978 2975 2973 2971 2970 2969 2967 2963 2960 2957 2956 2955 2954 2952 2951 2949 2947 2944 2942 2939 2938 2936 2935 2933 2931 2929 2927 2925 2923 2922 2920 2918 2916 2913 2911 2908 2906 2904 2902 2901 2899 2898 2897 2896 2894 2893 2891 2890 2888 2887 2886 2884 2883 2882 2881 2881 2880 2879 2878 2878 2877 2876 2876 2875 2875 2875 2874 2874 2875 2875 2875 2875 2875 2876 2876 2877 2877 2878 2878 2878 2879 2880 2880
2978 2977 2976 2974 2973 2970 2967 2966 2965 2964 2961 2957 2954 2952 2950 2948 2947 2946 2945 2943 2941 2938 2935 2932 2930 2929 2928 2927 2924 2921 2919 2917 2915 2913 2910 2908 2905 2903 2900 2898 2895 2893 2892 2891 2890 2890 2889 2888 2888 2886 2885 2884 2883 2882 2881 2879 2878 2878 2877 2876 2875 2874 2874 2873 2872 2871 2870 2870 2869 2869 2869 2869 2869 2869 2869 2869 2870 2870 2870 2871 2872 2872 2873 2873 2874 2874
2976 2974 2972 2970 2969 2967 2964 2962 2961 2960 2958 2954 2951 2948 2947 2944 2942 2940 2938 2938 2938 2936 2932 2928 2926 2924 2922 2921 2920 2917 2914 2911 2910 2908 2905 2902 2899 2897 2894 2891 2888 2886 2884 2883 2882 2881 2881 2882 2881 2881 2880 2879 2878 2877 2876 2875 2875 2874 2873 2873 2872 2871 2870 2869 2868 2867 2866 2865 2865 2864 2864 2864 2864 2863 2863 2864 2864 2864 2864 2865 2865 2866 2867 2867 2868 2868
2972 2970 2968 2966 2965 2963 2961 2959 2957 2955 2954 2951 2948 2946 2944 2942 2939 2936 2933 2932 2932 2931 2929 2926 2923 2920 2918 2916 2914 2913 2910 2907 2904 2902 2900 2898 2895 2892 2889 2887 2884 2881 2879 2877 2876 2875 2874 2874 2874 2874 2873 2873 2873 2872 2872 2871 2870 2869 2869 2868 2867 2867 2866 2864 2863 2863 2862 2861 2860 2860 2859 2859 2858 2858 2858 2858 2858 2858 2858 2859 2859 2860 2860 2861 2862 2863
2969 2967 2964 2963 2961 2959 2958 2956 2953 2952 2950 2948 2945 2943 2941 2939 2937 2933 2930 2928 2927 2926 2924 2922 2920 2918 2915 2912 2909 2907 2905 2902 2899 2897 2894 2893 2890 2888 2885 2882 2879 2877 2875 2873 2871 2870 2869 2868 2868 2868 2868 2867 2867 2867 2867 2866 2865 2864 2863 2863 2862 2861 2860 2859 2859 2858 2857 2856 2855 2855 2854 2854 2853 2853 2853 2853 2853 2853 2853 2853 2854 2854 2855 2855 2856 2857
2965 2963 2961 2959 2958 2956 2954 2952 2950 2948 2947 2945 2942 2940 2937 2936 2934 2931 2928 2925 2923 2922 2919 2916 2915 2913 2912 2909 2906 2903 2900 2897 2895 2893 2890 2888 2886 2884 2881 2878 2876 2874 2871 2869 2867 2866 2865 2864 2863 2862 2862 2861 2861 2861 2861 2860 2859 2858 2858 2857 2856 2856 2855 2854 2854 2853 2853 2852 2851 2850 2850 2849 2849 2848 2848 2848 2848 2848 2848 2848 2848 2848 2849 2849 2850 2850
2962 2960 2958 2956 2954 2953 2951 2949 2947 2944 2943 2942 2940 2937 2934 2932 2930 2928 2925 2922 2920 2918 2916 2913 2910 2909 2908 2906 2903 2900 2896 2893 2890 2888 2887 2885 2884 2882 2879 2876 2873 2872 2869 2866 2864 2863 2862 2861 2859 2857 2857 2856 2856 2855 2855 2855 2854 2853 2852 2852 2851 2851 2850 2850 2849 2849 2848 2848 2847 2846 2846 2845 2845 2844 2844 2843 2843 2843 2843 2843 2843 2843 2843 2844 2844 2844
2958 2957 2954 2952 2951 2950 2948 2946 2943 2941 2940 2939 2937 2934 2932 2929 2927 2925 2923 2919 2917 2915 2913 2909 2906 2904 2904 2903 2900 2897 2893 2890 2887 2884 2882 2881 2881 2880 2876 2872 2870 2868 2867 2864 2862 2860 2860 2858 2856 2854 2853 2852 2851 2850 2849 2849 2848 2848 2847 2847 2846 2846 2846 2846 2845 2844 2844 2843 2843 2842 2842 2841 2841 2840 2840 2839 2838 2838 2838 2838 2838 2838 2838 2838 2838 2838
2956 2953 2951 2949 2948 2946 2945 2943 2941 2938 2937 2935 2934 2932 2929 2926 2924 2922 2920 2916 2913 2911 2908 2905 2902 2898 2898 2899 2898 2895 2891 2887 2883 2881 2879 2877 2877 2877 2874 2869 2866 2864 2863 2861 2859 2857 2856 2855 2853 2851 2850 2848 2848 2847 2845 2844 2843 2843 2843 2842 2842 2841 2841 2841 2841 2840 2840 2839 2839 2838 2838 2837 2837 2836 2836 2835 2834 2834 2833 2833 2833 2833 2833 2833 2833 2833
2953 2951 2948 2946 2944 2943 2942 2940 2938 2936 2934 2933 2931 2929 2926 2923 2921 2919 2916 2913 2911 2908 2905 2903 2899 2894 2891 2891 2893 2894 2891 2885 2881 2878 2875 2873 2873 2873 2871 2867 2863 2860 2859 2858 2856 2855 2853 2851 2850 2848 2847 2846 2845 2843 2842 2841 2840 2839 2839 2838 2838 2837 2837 2836 2836 2836 2835 2835 2834 2834 2834 2833 2833 2832 2831 2831 2830 2829 2829 2828 2828 2828 2828 2828 2828 2828
2949 2948 2946 2943 2942 2940 2939 2938 2936 2934 2932 2930 2928 2926 2923 2921 2919 2916 2913 2911 2908 2905 2902 2900 2897 2893 2890 2886 2886 2889 2889 2884 2878 2874 2871 2868 2868 2868 2867 2863 2859 2856 2854 2853 2852 2851 2849 2848 2846 2844 2843 2843 2841 2840 2839 2838 2837 2836 2835 2835 2834 2833 2833 2832 2832 2832 2831 2831 2831 2830 2830 2829 2828 2828 2828 2827 2826 2826 2825 2824 2824 2824 2823 2823 2823 2823
2947 2945 2944 2941 2939 2937 2936 2935 2934 2932 2930 2927 2925 2922 2920 2918 2916 2914 2911 2908 2906 2903 2900 2897 2893 2891 2888 2884 2883 2884 2885 2882 2876 2871 2867 2863 2862 2862 2863 2860 2855 2852 2849 2848 2848 2847 2845 2843 2841 2840 2839 2838 2837 2836 2835 2834 2833 2833 2832 2831 2830 2830 2829 2828 2828 2827 2827 2827 2826 2826 2826 2825 2825 2824 2823 2823 2822 2821 2821 2820 2820 2819 2819 2819 2819 2818
2943 2943 2942 2940 2937 2935 2933 2933 2933 2931 2928 2925 2922 2919 2917 2915 2913 2911 2908 2906 2903 2901 2898 2894 2891 2888 2886 2883 2881 2881 2882 2879 2873 2868 2863 2859 2856 2856 2858 2855 2851 2847 2844 2844 2843 2843 2841 2838 2837 2836 2835 2834 2833 2832 2831 2830 2829 2828 2828 2827 2826 2825 2825 2824 2824 2823 2823 2822 2821 2821 2820 2820 2820 2819 2819 2818 2818 2817 2816 2816 2815 2815 2815 2814 2814 2814
2941 2940 2940 2938 2936 2933 2930 2930 2930 2928 2926 2923 2919 2916 2914 2911 2909 2907 2905 2903 2900 2897 2895 2892 2888 2885 2883 2880 2878 2878 2878 2876 2871 2865 2860 2854 2851 2851 2853 2851 2847 2843 2840 2839 2839 2838 2837 2834 2833 2832 2831 2830 2830 2829 2828 2827 2826 2824 2823 2823 2822 2821 2820 2820 2819 2818 2818 2817 2816 2816 2815 2814 2814 2814 2813 2813 2813 2812 2812 2811 2810 2810 2809 2809 2809 2808
2939 2938 2937 2936 2935 2932 2928 2927 2926 2925 2923 2920 2917 2914 2911 2908 2906 2903 2901 2900 2897 2894 2892 2888 2885 2883 2881 2878 2876 2875 2875 2873 2868 2863 2857 2850 2846 2846 2848 2847 2843 2839 2837 2835 2835 2834 2832 2831 2829 2828 2828 2827 2827 2826 2825 2824 2823 2821 2820 2819 2818 2817 2817 2816 2815 2814 2813 2813 2812 2811 2810 2809 2809 2808 2808 2808 2807 2807 2807 2806 2805 2805 2804 2804 2803 2803
2937 2935 2934 2933 2932 2929 2927 2924 2923 2921 2920 2918 2915 2912 2910 2907 2904 2901 2898 2897 2894 2891 2888 2885 2882 2880 2878 2875 2873 2872 2872 2870 2866 2861 2855 2848 2842 2841 2843 2843 2839 2836 2833 2832 2831 2830 2828 2827 2825 2825 2824 2824 2823 2823 2822 2821 2819 2818 2817 2816 2815 2814 2813 2812 2811 2810 2809 2808 2808 2807 2806 2805 2804 2803 2803 2802 2802 2801 2801 2801 2800 2800 2799 2799 2798 2798
2934 2932 2930 2929 2928 2925 2923 2921 2919 2918 2916 2914 2912 2910 2908 2905 2903 2899 2897 2895 2892 2889 2885 2881 2878 2875 2874 2872 2870 2868 2868 2867 2863 2858 2853 2846 2840 2838 2838 2838 2835 2832 2829 2829 2828 2826 2823 2822 2821 2821 2820 2819 2819 2818 2818 2817 2816 2815 2813 2813 2812 2811 2810 2809 2808 2807 2805 2804 2803 2803 2802 2801 2800 2799 2798 2797 2796 2796 2795 2795 2794 2794 2794 2793 2793 2793
2930 2928 2927 2925 2924 2922 2920 2918 2917 2915 2913 2912 2909 2907 2905 2903 2900 2898 2895 2893 2890 2886 2882 2878 2875 2872 2870 2868 2866 2864 2864 2863 2860 2855 2850 2843 2838 2834 2834 2834 2832 2828 2825 2824 2824 2822 2819 2818 2817 2817 2816 2815 2815 2814 2813 2812 2811 2810 2809 2808 2807 2807 2806 2805 2804 2803 2802 2801 2799 2798 2798 2797 2796 2795 2794 2793 2792 2791 2790 2790 2789 2789 2788 2788 2788 2787
2928 2927 2925 2924 2922 2920 2918 2917 2915 2913 2912 2911 2908 2906 2903 2900 2897 2894 2892 2890 2887 2884 2879 2875 2872 2869 2867 2865 2862 2860 2859 2858 2856 2853 2847 2841 2835 2831 2831 2831 2829 2825 2821 2819 2818 2818 2815 2813 2812 2812 2811 2811 2810 2809 2808 2808 2807 2806 2804 2803 2802 2802 2801 2801 2800 2799 2798 2797 2795 2794 2793 2793 2792 2791 2790 2789 2788 2787 2786 2785 2785 2784 2783 2783 2783 2782
2926 2924 2923 2921 2920 2918 2917 2915 2913 2912 2911 2909 2908 2905 2902 2898 2894 2891 2889 2887 2884 2881 2877 2873 2869 2866 2864 2861 2859 2857 2856 2854 2853 2849 2845 2839 2833 2828 2827 2827 2825 2822 2818 2815 2813 2813 2811 2809 2808 2807 2807 2806 2805 2805 2804 2803 2802 2801 2800 2799 2798 2797 2796 2795 2795 2794 2793 2792 2791 2790 2789 2788 2787 2786 2785 2785 2784 2783 2782 2781 2781 2780 2779 2778 2778 2776
2923 2922 2921 2919 2918 2916 2914 2913 2911 2910 2908 2907 2905 2903 2900 2896 2892 2888 2886 2884 2881 2878 2874 2871 2868 2864 2861 2858 2856 2854 2853 2851 2849 2846 2842 2837 2831 2827 2825 2824 2822 2819 2815 2811 2808 2808 2807 2805 2804 2803 2803 2802 2801 2800 2799 2798 2798 2797 2796 2794 2793 2792 2791 2790 2790 2789 2788 2788 2787 2785 2784 2783 2783 2782 2781 2780 2779 2779 2778 2777 2777 2776 2775 2774 2773 2771
2921 2919 2918 2917 2915 2913 2912 2910 2908 2907 2906 2904 2902 2900 2897 2893 2890 2886 2883 2881 2878 2875 2872 2869 2867 2863 2858 2855 2852 2850 2849 2848 2846 2843 2839 2834 2828 2824 2823 2821 2819 2816 2813 2808 2804 2802 2802 2802 2801 2800 2798 2798 2797 2796 2795 2794 2793 2792 2791 2790 2789 2788 2787 2786 2785 2784 2783 2783 2782 2781 2780 2779 2778 2777 2776 2776 2775 2774 2774 2773 2773 2772 2771 2769 2768 2766
2918 2916 2915 2913 2912 2910 2908 2907 2905 2904 2903 2901 2899 2897 2894 2891 2888 2884 2881 2879 2877 2873 2870 2868 2865 2861 2857 2853 2849 2846 2845 2845 2844 2841 2836 2832 2826 2823 2821 2819 2816 2814 2812 2808 2802 2797 2795 2796 2797 2797 2795 2794 2793 2792 2791 2790 2789 2788 2787 2786 2784 2783 2783 2782 2780 2779 2779 2778 2777 2777 2775 2774 2773 2773 2772 2771 2770 2770 2769 2769 2769 2768 2766 2764 2763 2761
2914 2913 2911 2910 2909 2907 2906 2904 2903 2901 2900 2898 2896 2894 2891 2889 2886 2883 2880 2878 2875 2872 2869 2865 2862 2859 2855 2851 2847 2843 2841 2842 2842 2839 2835 2830 2824 2821 2819 2816 2813 2812 2811 2808 2803 2797 2790 2789 2791 2793 2793 2791 2789 2788 2788 2787 2786 2784 2783 2781 2780 2779 2778 2777 2776 2775 2774 2773 2773 2772 2771 2770 2769 2768 2767 2767 2766 2765 2765 2765 2764 2764 2762 2760 2758 2757
2911 2909 2908 2907 2906 2904 2903 2901 2900 2898 2897 2895 2893 2891 2889 2886 2884 2881 2878 2876 2873 2870 2867 2863 2860 2856 2853 2850 2846 2842 2839 2838 2838 2837 2833 2828 2823 2819 2817 2814 2811 2808 2808 2807 2805 2800 2793 2787 2786 2788 2789 2788 2786 2785 2784 2783 2782 2780 2779 2777 2775 2773 2773 2772 2771 2769 2768 2768 2767 2766 2766 2765 2764 2763 2763 2762 2761 2760 2760 2760 2760 2759 2758 2756 2754 2752
2908 2906 2905 2904 2903 2901 2900 2898 2897 2895 2894 2892 2890 2888 2886 2884 2881 2879 2876 2874 2871 2868 2864 2861 2857 2854 2850 2847 2844 2841 2838 2837 2836 2833 2830 2826 2821 2817 2815 2813 2810 2807 2805 2803 2801 2799 2795 2789 2785 2783 2783 2783 2783 2782 2781 2779 2778 2777 2775 2773 2771 2769 2768 2768 2766 2764 2763 2762 2761 2760 2759 2759 2759 2758 2758 2757 2756 2756 2755 2755 2754 2754 2753 2752 2750 2748
2904 2903 2902 2901 2899 2898 2897 2896 2894 2893 2891 2889 2887 2885 2883 2881 2878 2876 2874 2871 2868 2865 2862 2859 2855 2851 2848 2844 2841 2839 2837 2836 2834 2832 2828 2825 2821 2816 2813 2811 2808 2806 2803 2800 2798 2795 2793 2789 2786 2783 2780 2779 2779 2779 2778 2777 2775 2773 2772 2770 2768 2766 2764 2763 2762 2760 2758 2757 2755 2754 2753 2753 2752 2752 2752 2751 2751 2750 2750 2749 2749 2749 2748 2747 2746 2744
2902 2900 2899 2898 2897 2895 2894 2893 2891 2890 2888 2886 2884 2882 2880 2878 2875 2873 2871 2868 2866 2863 2860 2857 2853 2850 2846 2843 2839 2837 2835 2834 2833 2830 2827 2824 2820 2816 2812 2809 2808 2805 2802 2798 2796 2794 2790 2787 2785 2783 2779 2776 2775 2775 2775 2774 2772 2770 2768 2767 2765 2763 2761 2759 2757 2755 2753 2752 2750 2749 2748 2747 2746 2745 2745 2745 2745 2744 2744 2744 2744 2743 2743 2742 2741 2740
2898 2898 2897 2895 2894 2892 2891 2890 2888 2887 2885 2883 2881 2879 2877 2875 2873 2870 2868 2865 2863 2860 2858 2855 2852 2849 2846 2843 2839 2836 2833 2832 2830 2828 2825 2822 2819 2815 2811 2808 2806 2804 2801 2798 2795 2792 2789 2785 2783 2781 2778 2775 2772 2770 2770 2770 2768 2767 2765 2763 2762 2760 2758 2756 2754 2752 2749 2747 2745 2744 2742 2741 2740 2739 2738 2738 2738 2738 2738 2737 2737 2737 2737 2736 2736 2735
2896 2895 2894 2892 2891 2889 2888 2887 2886 2884 2882 2880 2878 2876 2874 2872 2869 2867 2865 2863 2860 2858 2855 2853 2850 2848 2845 2842 2838 2835 2832 2829 2827 2825 2823 2820 2817 2814 2810 2807 2805 2803 2801 2797 2793 2790 2787 2783 2780 2778 2776 2774 2771 2768 2766 2765 2764 2763 2761 2760 2758 2756 2754 2753 2751 2749 2746 2743 2741 2739 2737 2736 2734 2733 2732 2732 2731 2731 2730 2730 2730 2730 2730 2730 2729 2729
2893 2892 2891 2890 2888 2887 2885 2884 2883 2881 2879 2878 2875 2873 2871 2869 2867 2865 2863 2861 2858 2856 2853 2850 2848 2846 2843 2841 2838 2834 2831 2828 2825 2823 2820 2818 2815 2812 2809 2805 2803 2802 2800 2797 2793 2790 2787 2783 2779 2776 2774 2772 2770 2768 2765 2763 2761 2758 2757 2756 2754 2753 2751 2749 2748 2745 2742 2739 2737 2735 2733 2731 2730 2728 2727 2726 2725 2724 2723 2723 2723 2723 2723 2723 2722 2721
2890 2889 2888 2887 2886 2884 2883 2882 2880 2878 2877 2875 2873 2870 2868 2867 2865 2863 2861 2858 2856 2853 2851 2848 2846 2843 2841 2838 2836 2833 2830 2827 2824 2821 2818 2816 2813 2811 2808 2804 2802 2799 2798 2795 2793 2790 2787 2783 2780 2776 2773 2770 2768 2766 2764 2762 2759 2757 2753 2751 2750 2749 2748 2747 2744 2742 2739 2736 2734 2731 2729 2728 2726 2724 2722 2721 2720 2719 2718 2717 2717 2717 2716 2715 2714 2714
2888 2887 2886 2885 2883 2882 2880 2879 2878 2876 2874 2872 2870 2868 2866 2864 2863 2861 2859 2856 2854 2851 2848 2846 2844 2841 2839 2837 2834 2831 2828 2825 2822 2819 2817 2814 2811 2808 2806 2803 2800 2798 2796 2793 2791 2789 2786 2783 2779 2776 2773 2770 2767 2764 2762 2760 2758 2755 2752 2749 2746 2745 2745 2743 2741 2739 2736 2734 2731 2729 2726 2724 2723 2721 2719 2718 2716 2715 2714 2713 2712 2711 2710 2709 2708 2707
2885 2884 2883 2883 2881 2880 2878 2877 2875 2873 2871 2869 2868 2866 2864 2862 2860 2858 2857 2854 2852 2849 2847 2844 2842 2840 2838 2835 2833 2829 2827 2823 2821 2818 2815 2812 2809 2807 2804 2801 2799 2796 2794 2792 2790 2788 2785 2782 2778 2775 2773 2770 2766 2763 2761 2759 2757 2754 2751 2748 2744 2743 2742 2741 2739 2736 2733 2731 2729 2727 2724 2722 2720 2718 2716 2715 2713 2712 2710 2709 2707 2706 2705 2704 2703 2701
2883 2882 2881 2880 2879 2878 2876 2874 2873 2871 2869 2867 2865 2863 2862 2860 2858 2856 2854 2852 2849 2847 2845 2842 2840 2838 2836 2834 2831 2828 2825 2822 2819 2816 2813 2810 2808 2805 2803 2800 2798 2795 2793 2790 2788 2786 2784 2781 2778 2775 2772 2769 2766 2763 2760 2758 2756 2753 2750 2747 2743 2741 2739 2738 2737 2734 2732 2729 2727 2724 2722 2719 2717 2715 2713 2712 2710 2709 2707 2706 2704 2702 2701 2699 2698 2697
2881 2880 2879 2878 2877 2875 2874 2872 2871 2869 2867 2865 2863 2861 2859 2858 2855 2853 2851 2849 2847 2845 2843 2840 2838 2836 2833 2832 2829 2827 2824 2821 2818 2815 2812 2809 2806 2803 2801 2799 2797 2794 2792 2789 2787 2784 2783 2780 2778 2774 2771 2768 2765 2762 2759 2756 2754 2752 2749 2746 2743 2739 2736 2734 2733 2732 2729 2727 2725 2722 2720 2717 2715 2713 2711 2709 2708 2706 2705 2703 2701 2700 2698 2696 2694 2693
2878 2878 2877 2875 2874 2873 2872 2870 2868 2867 2865 2863 2861 2860 2858 2856 2853 2852 2849 2847 2845 2843 2840 2838 2836 2834 2832 2829 2828 2825 2823 2821 2817 2814 2811 2808 2805 2803 2800 2798 2796 2793 2791 2788 2786 2783 2781 2779 2776 2774 2771 2768 2764 2761 2758 2754 2752 2750 2748 2745 2742 2739 2736 2733 2730 2728 2726 2725 2723 2720 2718 2715 2713 2711 2709 2708 2706 2704 2703 2701 2699 2698 2696 2695 2693 2691
2876 2875 2874 2873 2872 2871 2869 2868 2866 2865 2863 2861 2860 2858 2856 2854 2852 2850 2848 2845 2843 2841 2839 2836 2834 2832 2830 2828 2826 2823 2822 2819 2817 2814 2811 2808 2805 2802 2800 2797 2795 2793 2790 2788 2785 2782 2779 2777 2775 2772 2770 2767 2763 2760 2756 2753 2750 2748 2746 2744 2742 2739 2736 2733 2730 2727 2724 2722 2720 2718 2716 2713 2711 2709 2707 2705 2704 2703 2701 2699 2698 2696 2695 2693 2691 2689
2874 2873 2872 2871 2870 2869 2867 2866 2864 2863 2861 2860 2858 2856 2854 2853 2850 2848 2846 2843 2841 2839 2837 2835 2833 2830 2828 2826 2824 2822 2820 2818 2815 2813 2810 2807 2804 2802 2799 2797 2794 2792 2790 2787 2784 2782 2779 2776 2773 2770 2767 2764 2761 2758 2755 2752 2749 2747 2744 2743 2740 2738 2735 2732 2729 2726 2723 2721 2718 2716 2714 2712 2709 2707 2705 2703 2702 2700 2699 2697 2695 2693 2692 2690 2688 2687
2872 2871 2870 2869 2868 2867 2865 2864 2863 2861 2860 2858 2857 2855 2853 2851 2849 2847 2844 2842 2840 2838 2835 2833 2832 2829 2827 2824 2822 2820 2818 2816 2813 2811 2809 2807 2804 2802 2799 2797 2794 2792 2789 2787 2784 2781 2778 2775 2772 2768 2765 2762 2758 2756 2753 2751 2748 2745 2743 2741 2738 2736 2734 2731 2728 2726 2723 2720 2717 2714 2712 2709 2707 2705 2703 2700 2699 2697 2696 2694 2693 2690 2688 2687 2685 2683
2870 2869 2868 2867 2866 2865 2863 2862 2861 2859 2858 2857 2855 2853 2851 2849 2847 2845 2843 2841 2838 2836 2834 2832 2830 2828 2826 2823 2821 2818 2816 2814 2812 2810 2808 2806 2803 2801 2799 2797 2795 2793 2790 2788 2785 2782 2778 2774 2770 2766 2763 2759 2756 2753 2751 2749 2747 2744 2742 2740 2738 2735 2733 2730 2727 2724 2722 2718 2716 2713 2710 2708 2705 2702 2699 2697 2695 2693 2692 2691 2689 2688 2685 2683 2681 2678
2868 2867 2866 2865 2864 2863 2862 2860 2859 2858 2856 2855 2853 2852 2850 2848 2846 2844 2842 2839 2837 2835 2833 2831 2829 2827 2825 2823 2820 2818 2815 2813 2811 2809 2807 2804 2803 2801 2798 2797 2794 2792 2790 2788 2785 2782 2779 2775 2771 2766 2762 2758 2755 2752 2750 2748 2746 2744 2742 2739 2737 2734 2731 2729 2726 2723 2720 2717 2714 2712 2709 2707 2704 2701 2698 2695 2692 2690 2688 2687 2686 2684 2682 2680 2677 2675
2866 2865 2864 2863 2862 2861 2860 2859 2858 2856 2855 2853 2852 2850 2848 2847 2845 2843 2840 2838 2836 2834 2832 2830 2828 2826 2824 2822 2819 2817 2815 2813 2810 2808 2806 2803 2802 2799 2797 2795 2793 2790 2788 2786 2783 2781 2778 2776 2773 2768 2763 2759 2755 2752 2749 2747 2745 2743 2742 2739 2737 2733 2731 2728 2725 2722 2719 2716 2713 2711 2708 2705 2703 2700 2697 2693 2690 2688 2685 2684 2683 2681 2679 2677 2675 2673
2864 2863 2862 2861 2860 2859 2858 2857 2856 2855 2853 2852 2850 2849 2847 2845 2843 2841 2839 2837 2835 2833 2831 2829 2827 2825 2823 2821 2818 2816 2814 2812 2809 2807 2805 2803 2800 2798 2795 2793 2790 2788 2786 2783 2781 2778 2776 2774 2773 2769 2766 2761 2757 2753 2750 2747 2745 2743 2741 2739 2736 2733 2730 2727 2724 2721 2718 2715 2713 2710 2707 2704 2701 2698 2696 2693 2689 2686 2683 2681 2680 2679 2677 2675 2673 2670